Time,TemperatureF,DewpointF,PressureIn,WindDirection,WindDirectionDegrees,WindSpeedMPH,WindSpeedGustMPH,Humidity,HourlyPrecipIn,Conditions,Clouds,dailyrainin,SoftwareType,DateUTC
2013-04-14 00:00:00,42.1,35.8,30.03,WNW,298,1.0,4.0,78,0.00,,---,0.00,VWS V14.00,2013-04-14 04:00:00,
2013-04-14 00:05:00,42.0,35.7,30.04,WNW,298,0.0,1.0,78,0.00,,---,0.00,VWS V14.00,2013-04-14 04:05:00,
2013-04-14 00:10:00,41.9,35.5,30.04,West,269,1.0,2.0,78,0.00,,---,0.00,VWS V14.00,2013-04-14 04:10:00,
2013-04-14 00:15:00,41.7,35.4,30.04,WNW,284,0.0,0.0,78,0.00,,---,0.00,VWS V14.00,2013-04-14 04:15:00,
2013-04-14 00:20:00,41.6,35.3,30.05,South,184,0.0,2.0,78,0.00,,---,0.00,VWS V14.00,2013-04-14 04:20:00,
2013-04-14 00:25:00,41.3,35.0,30.05,SW,227,0.0,0.0,78,0.00,,---,0.00,VWS V14.00,2013-04-14 04:25:00,
2013-04-14 00:30:00,41.1,34.8,30.05,West,265,0.0,3.0,78,0.00,,---,0.00,VWS V14.00,2013-04-14 04:30:00,
2013-04-14 00:35:00,41.0,34.7,30.05,West,265,0.0,2.0,78,0.00,,---,0.00,VWS V14.00,2013-04-14 04:35:00,
2013-04-14 00:40:00,40.8,34.5,30.05,NNW,331,5.0,5.0,78,0.00,,---,0.00,VWS V14.00,2013-04-14 04:40:00,
2013-04-14 00:45:00,40.6,34.0,30.05,NW,315,4.0,10.0,77,0.00,,---,0.00,VWS V14.00,2013-04-14 04:45:00,
2013-04-14 00:50:00,40.4,33.8,30.06,WNW,298,0.0,0.0,77,0.00,,---,0.00,VWS V14.00,2013-04-14 04:50:00,
2013-04-14 00:55:00,40.3,33.7,30.05,WNW,298,0.0,3.0,77,0.00,,---,0.00,VWS V14.00,2013-04-14 04:55:00,
2013-04-14 01:00:00,40.1,33.5,30.06,WNW,293,0.0,2.0,77,0.00,,---,0.00,VWS V14.00,2013-04-14 05:00:00,
2013-04-14 01:05:00,40.0,33.4,30.06,SSW,211,0.0,2.0,77,0.00,,---,0.00,VWS V14.00,2013-04-14 05:05:00,
2013-04-14 01:10:00,39.8,32.9,30.06,SSW,211,0.0,0.0,76,0.00,,---,0.00,VWS V14.00,2013-04-14 05:10:00,
2013-04-14 01:15:00,39.6,32.7,30.06,SSW,211,0.0,0.0,76,0.00,,---,0.00,VWS V14.00,2013-04-14 05:15:00,
2013-04-14 01:20:00,39.5,32.6,30.06,SSW,211,0.0,0.0,76,0.00,,---,0.00,VWS V14.00,2013-04-14 05:20:00,
2013-04-14 01:25:00,39.3,32.4,30.06,SSW,211,0.0,0.0,76,0.00,,---,0.00,VWS V14.00,2013-04-14 05:25:00,
2013-04-14 01:30:00,39.2,32.3,30.07,SW,225,0.0,0.0,76,0.00,,---,0.00,VWS V14.00,2013-04-14 05:30:00,
2013-04-14 01:35:00,39.0,32.1,30.06,SW,225,0.0,1.0,76,0.00,,---,0.00,VWS V14.00,2013-04-14 05:35:00,
2013-04-14 01:40:00,38.8,31.9,30.07,SW,225,0.0,0.0,76,0.00,,---,0.00,VWS V14.00,2013-04-14 05:40:00,
2013-04-14 01:45:00,38.6,31.7,30.07,SW,225,0.0,0.0,76,0.00,,---,0.00,VWS V14.00,2013-04-14 05:45:00,
2013-04-14 01:50:00,38.5,31.6,30.07,SW,225,0.0,0.0,76,0.00,,---,0.00,VWS V14.00,2013-04-14 05:50:00,
2013-04-14 01:55:00,38.2,31.3,30.07,SW,225,0.0,0.0,76,0.00,,---,0.00,VWS V14.00,2013-04-14 05:55:00,
2013-04-14 02:00:00,38.0,31.1,30.07,SW,225,0.0,0.0,76,0.00,,---,0.00,VWS V14.00,2013-04-14 06:00:00,
2013-04-14 02:05:00,37.8,30.9,30.07,SW,225,0.0,0.0,76,0.00,,---,0.00,VWS V14.00,2013-04-14 06:05:00,
2013-04-14 02:10:00,37.6,31.1,30.07,SW,225,0.0,0.0,77,0.00,,---,0.00,VWS V14.00,2013-04-14 06:10:00,
2013-04-14 02:15:00,37.4,30.5,30.07,SW,225,0.0,0.0,76,0.00,,---,0.00,VWS V14.00,2013-04-14 06:15:00,
2013-04-14 02:20:00,37.2,30.7,30.07,SW,225,0.0,0.0,77,0.00,,---,0.00,VWS V14.00,2013-04-14 06:20:00,
2013-04-14 02:25:00,36.9,30.4,30.06,SW,225,0.0,0.0,77,0.00,,---,0.00,VWS V14.00,2013-04-14 06:25:00,
2013-04-14 02:30:00,36.6,30.1,30.06,SW,225,0.0,0.0,77,0.00,,---,0.00,VWS V14.00,2013-04-14 06:30:00,
2013-04-14 02:35:00,36.3,29.8,30.06,SW,225,0.0,0.0,77,0.00,,---,0.00,VWS V14.00,2013-04-14 06:35:00,
2013-04-14 02:40:00,36.0,29.8,30.06,SW,225,0.0,0.0,78,0.00,,---,0.00,VWS V14.00,2013-04-14 06:40:00,
2013-04-14 02:45:00,35.7,29.5,30.06,SW,225,0.0,0.0,78,0.00,,---,0.00,VWS V14.00,2013-04-14 06:45:00,
2013-04-14 02:50:00,35.4,29.2,30.07,SW,225,0.0,0.0,78,0.00,,---,0.00,VWS V14.00,2013-04-14 06:50:00,
2013-04-14 02:55:00,35.1,28.9,30.06,SW,225,0.0,0.0,78,0.00,,---,0.00,VWS V14.00,2013-04-14 06:55:00,
2013-04-14 03:00:00,34.9,28.8,30.06,SW,225,0.0,0.0,78,0.00,,---,0.00,VWS V14.00,2013-04-14 07:00:00,
2013-04-14 03:05:00,34.6,28.8,30.06,SW,225,0.0,0.0,79,0.00,,---,0.00,VWS V14.00,2013-04-14 07:05:00,
2013-04-14 03:10:00,34.4,28.6,30.06,SW,225,0.0,0.0,79,0.00,,---,0.00,VWS V14.00,2013-04-14 07:10:00,
2013-04-14 03:15:00,34.1,28.3,30.06,SW,225,0.0,0.0,79,0.00,,---,0.00,VWS V14.00,2013-04-14 07:15:00,
2013-04-14 03:20:00,33.9,28.1,30.07,SW,225,0.0,0.0,79,0.00,,---,0.00,VWS V14.00,2013-04-14 07:20:00,
2013-04-14 03:25:00,33.6,28.1,30.07,SW,225,0.0,0.0,80,0.00,,---,0.00,VWS V14.00,2013-04-14 07:25:00,
2013-04-14 03:30:00,33.4,27.9,30.07,SW,225,0.0,0.0,80,0.00,,---,0.00,VWS V14.00,2013-04-14 07:30:00,
2013-04-14 03:35:00,33.2,27.7,30.07,SW,225,0.0,0.0,80,0.00,,---,0.00,VWS V14.00,2013-04-14 07:35:00,
2013-04-14 03:40:00,33.0,27.5,30.07,SW,225,0.0,0.0,80,0.00,,---,0.00,VWS V14.00,2013-04-14 07:40:00,
2013-04-14 03:45:00,32.8,27.6,30.07,SW,225,0.0,0.0,81,0.00,,---,0.00,VWS V14.00,2013-04-14 07:45:00,
2013-04-14 03:50:00,32.6,27.4,30.07,SW,225,0.0,0.0,81,0.00,,---,0.00,VWS V14.00,2013-04-14 07:50:00,
2013-04-14 03:55:00,32.4,27.2,30.07,SW,225,0.0,0.0,81,0.00,,---,0.00,VWS V14.00,2013-04-14 07:55:00,
2013-04-14 04:00:00,32.2,27.0,30.08,SW,225,0.0,0.0,81,0.00,,---,0.00,VWS V14.00,2013-04-14 08:00:00,
2013-04-14 04:05:00,32.1,26.9,30.08,SW,225,0.0,0.0,81,0.00,,---,0.00,VWS V14.00,2013-04-14 08:05:00,
2013-04-14 04:10:00,31.9,27.0,30.08,SW,225,0.0,0.0,82,0.00,,---,0.00,VWS V14.00,2013-04-14 08:10:00,
2013-04-14 04:15:00,31.7,26.8,30.08,SW,225,0.0,0.0,82,0.00,,---,0.00,VWS V14.00,2013-04-14 08:15:00,
2013-04-14 04:20:00,31.6,26.8,30.08,SW,225,0.0,0.0,82,0.00,,---,0.00,VWS V14.00,2013-04-14 08:20:00,
2013-04-14 04:25:00,31.5,26.6,30.08,SW,225,0.0,0.0,82,0.00,,---,0.00,VWS V14.00,2013-04-14 08:25:00,
2013-04-14 04:30:00,31.3,26.5,30.08,SW,225,0.0,0.0,82,0.00,,---,0.00,VWS V14.00,2013-04-14 08:30:00,
2013-04-14 04:35:00,31.2,26.6,30.08,SW,225,0.0,0.0,83,0.00,,---,0.00,VWS V14.00,2013-04-14 08:35:00,
2013-04-14 04:40:00,31.0,26.5,30.09,SW,225,0.0,0.0,83,0.00,,---,0.00,VWS V14.00,2013-04-14 08:40:00,
2013-04-14 04:45:00,30.9,26.4,30.09,SW,225,0.0,0.0,83,0.00,,---,0.00,VWS V14.00,2013-04-14 08:45:00,
2013-04-14 04:50:00,30.8,26.3,30.09,SW,225,0.0,0.0,83,0.00,,---,0.00,VWS V14.00,2013-04-14 08:50:00,
2013-04-14 04:56:00,30.7,26.2,30.09,SW,225,0.0,0.0,83,0.00,,---,0.00,VWS V14.00,2013-04-14 08:56:00,
2013-04-14 05:01:00,30.6,26.4,30.09,SW,225,0.0,0.0,84,0.00,,---,0.00,VWS V14.00,2013-04-14 09:01:00,
2013-04-14 05:06:00,30.5,26.2,30.09,SW,225,0.0,0.0,84,0.00,,---,0.00,VWS V14.00,2013-04-14 09:06:00,
2013-04-14 05:11:00,30.3,26.1,30.09,SW,225,0.0,0.0,84,0.00,,---,0.00,VWS V14.00,2013-04-14 09:11:00,
2013-04-14 05:16:00,30.3,26.1,30.09,SW,225,0.0,0.0,84,0.00,,---,0.00,VWS V14.00,2013-04-14 09:16:00,
2013-04-14 05:20:00,30.2,26.0,30.09,SW,225,0.0,0.0,84,0.00,,---,0.00,VWS V14.00,2013-04-14 09:20:00,
2013-04-14 05:25:00,30.1,25.9,30.10,SW,225,0.0,0.0,84,0.00,,---,0.00,VWS V14.00,2013-04-14 09:25:00,
2013-04-14 05:30:00,30.0,26.0,30.10,SW,225,0.0,0.0,85,0.00,,---,0.00,VWS V14.00,2013-04-14 09:30:00,
2013-04-14 05:35:00,29.9,26.0,30.10,SW,225,0.0,0.0,85,0.00,,---,0.00,VWS V14.00,2013-04-14 09:35:00,
2013-04-14 05:41:00,29.8,25.9,30.10,SW,225,0.0,0.0,85,0.00,,---,0.00,VWS V14.00,2013-04-14 09:41:00,
2013-04-14 05:46:00,29.7,25.8,30.10,SW,225,0.0,0.0,85,0.00,,---,0.00,VWS V14.00,2013-04-14 09:46:00,
2013-04-14 05:51:00,29.7,25.8,30.10,SW,225,0.0,0.0,85,0.00,,---,0.00,VWS V14.00,2013-04-14 09:51:00,
2013-04-14 05:56:00,29.6,25.9,30.10,SW,225,0.0,0.0,86,0.00,,---,0.00,VWS V14.00,2013-04-14 09:56:00,
2013-04-14 06:01:00,29.5,25.8,30.10,SW,225,0.0,0.0,86,0.00,,---,0.00,VWS V14.00,2013-04-14 10:01:00,
2013-04-14 06:06:00,29.4,25.7,30.10,SW,225,0.0,0.0,86,0.00,,---,0.00,VWS V14.00,2013-04-14 10:06:00,
2013-04-14 06:11:00,29.4,25.7,30.10,SW,225,0.0,0.0,86,0.00,,---,0.00,VWS V14.00,2013-04-14 10:11:00,
2013-04-14 06:16:00,29.3,25.6,30.10,SW,225,0.0,0.0,86,0.00,,---,0.00,VWS V14.00,2013-04-14 10:16:00,
2013-04-14 06:21:00,29.3,25.9,30.11,SW,225,0.0,0.0,87,0.00,,---,0.00,VWS V14.00,2013-04-14 10:21:00,
2013-04-14 06:26:00,29.2,25.5,30.11,SW,225,0.0,0.0,86,0.00,,---,0.00,VWS V14.00,2013-04-14 10:26:00,
2013-04-14 06:31:00,29.1,25.7,30.11,SW,225,0.0,0.0,87,0.00,,---,0.00,VWS V14.00,2013-04-14 10:31:00,
2013-04-14 06:36:00,29.0,25.6,30.11,SW,225,0.0,0.0,87,0.00,,---,0.00,VWS V14.00,2013-04-14 10:36:00,
2013-04-14 06:41:00,29.0,25.6,30.11,SW,225,0.0,0.0,87,0.00,,---,0.00,VWS V14.00,2013-04-14 10:41:00,
2013-04-14 06:46:00,28.9,25.5,30.11,SW,225,0.0,0.0,87,0.00,,---,0.00,VWS V14.00,2013-04-14 10:46:00,
2013-04-14 06:51:00,28.8,25.4,30.11,SW,225,0.0,0.0,87,0.00,,---,0.00,VWS V14.00,2013-04-14 10:51:00,
2013-04-14 06:56:00,28.8,25.4,30.11,SW,225,0.0,0.0,87,0.00,,---,0.00,VWS V14.00,2013-04-14 10:56:00,
2013-04-14 07:01:00,28.8,25.4,30.11,SW,225,0.0,0.0,87,0.00,,---,0.00,VWS V14.00,2013-04-14 11:01:00,
2013-04-14 07:06:00,28.7,25.6,30.12,SW,225,0.0,0.0,88,0.00,,---,0.00,VWS V14.00,2013-04-14 11:06:00,
2013-04-14 07:11:00,28.7,25.6,30.12,SW,225,0.0,0.0,88,0.00,,---,0.00,VWS V14.00,2013-04-14 11:11:00,
2013-04-14 07:17:00,28.7,25.6,30.12,SW,225,0.0,0.0,88,0.00,,---,0.00,VWS V14.00,2013-04-14 11:17:00,
2013-04-14 07:22:00,28.7,25.6,30.12,SW,225,0.0,0.0,88,0.00,,---,0.00,VWS V14.00,2013-04-14 11:22:00,
2013-04-14 07:27:00,28.7,25.6,30.12,SW,225,0.0,0.0,88,0.00,,---,0.00,VWS V14.00,2013-04-14 11:27:00,
2013-04-14 07:32:00,28.8,25.7,30.13,SW,225,0.0,0.0,88,0.00,,---,0.00,VWS V14.00,2013-04-14 11:32:00,
2013-04-14 07:37:00,28.8,26.0,30.13,SW,225,0.0,0.0,89,0.00,,---,0.00,VWS V14.00,2013-04-14 11:37:00,
2013-04-14 07:42:00,28.9,26.1,30.13,SW,225,0.0,0.0,89,0.00,,---,0.00,VWS V14.00,2013-04-14 11:42:00,
2013-04-14 07:47:00,29.1,26.3,30.13,SW,225,0.0,0.0,89,0.00,,---,0.00,VWS V14.00,2013-04-14 11:47:00,
2013-04-14 07:52:00,29.3,26.5,30.13,SW,225,0.0,0.0,89,0.00,,---,0.00,VWS V14.00,2013-04-14 11:52:00,
2013-04-14 07:57:00,29.6,27.0,30.13,SW,225,0.0,0.0,90,0.00,,---,0.00,VWS V14.00,2013-04-14 11:57:00,
2013-04-14 08:02:00,29.9,27.6,30.13,SW,225,0.0,0.0,91,0.00,,---,0.00,VWS V14.00,2013-04-14 12:02:00,
2013-04-14 08:07:00,30.3,28.0,30.14,SW,225,0.0,0.0,91,0.00,,---,0.00,VWS V14.00,2013-04-14 12:07:00,
2013-04-14 08:12:00,30.8,28.8,30.14,SW,225,0.0,0.0,92,0.00,,---,0.00,VWS V14.00,2013-04-14 12:12:00,
2013-04-14 08:17:00,32.0,30.2,30.14,SW,225,0.0,0.0,93,0.00,,---,0.00,VWS V14.00,2013-04-14 12:17:00,
2013-04-14 08:22:00,32.7,30.9,30.14,SW,225,0.0,0.0,93,0.00,,---,0.00,VWS V14.00,2013-04-14 12:22:00,
2013-04-14 08:27:00,33.3,31.5,30.15,SW,225,0.0,0.0,93,0.00,,---,0.00,VWS V14.00,2013-04-14 12:27:00,
2013-04-14 08:32:00,34.1,32.3,30.15,SSW,213,0.0,1.0,93,0.00,,---,0.00,VWS V14.00,2013-04-14 12:32:00,
2013-04-14 08:37:00,34.9,33.1,30.14,SSW,213,0.0,2.0,93,0.00,,---,0.00,VWS V14.00,2013-04-14 12:37:00,
2013-04-14 08:42:00,35.6,33.8,30.14,SSW,213,0.0,1.0,93,0.00,,---,0.00,VWS V14.00,2013-04-14 12:42:00,
2013-04-14 08:47:00,36.3,34.5,30.15,SSW,211,0.0,2.0,93,0.00,,---,0.00,VWS V14.00,2013-04-14 12:47:00,
2013-04-14 08:52:00,37.1,35.3,30.14,SE,134,1.0,3.0,93,0.00,,---,0.00,VWS V14.00,2013-04-14 12:52:00,
2013-04-14 08:57:00,38.0,35.9,30.15,SSE,160,1.0,4.0,92,0.00,,---,0.00,VWS V14.00,2013-04-14 12:57:00,
2013-04-14 09:02:00,38.9,36.2,30.14,SSE,157,2.0,3.0,90,0.00,,---,0.00,VWS V14.00,2013-04-14 13:02:00,
2013-04-14 09:07:00,39.8,36.2,30.14,South,178,0.0,2.0,87,0.00,,---,0.00,VWS V14.00,2013-04-14 13:07:00,
2013-04-14 09:12:00,40.6,36.5,30.14,South,178,2.0,2.0,85,0.00,,---,0.00,VWS V14.00,2013-04-14 13:12:00,
2013-04-14 09:17:00,41.6,36.2,30.15,SE,141,2.0,3.0,81,0.00,,---,0.00,VWS V14.00,2013-04-14 13:17:00,
2013-04-14 09:22:00,42.6,35.9,30.16,SSE,163,5.0,6.0,77,0.00,,---,0.00,VWS V14.00,2013-04-14 13:22:00,
2013-04-14 09:27:00,43.5,35.4,30.16,SE,134,2.0,4.0,73,0.00,,---,0.00,VWS V14.00,2013-04-14 13:27:00,
2013-04-14 09:32:00,44.3,34.8,30.17,South,185,1.0,6.0,69,0.00,,---,0.00,VWS V14.00,2013-04-14 13:32:00,
2013-04-14 09:37:00,45.0,34.7,30.17,South,182,3.0,6.0,67,0.00,,---,0.00,VWS V14.00,2013-04-14 13:37:00,
2013-04-14 09:42:00,45.6,34.9,30.17,South,186,0.0,3.0,66,0.00,,---,0.00,VWS V14.00,2013-04-14 13:42:00,
2013-04-14 09:47:00,46.1,34.6,30.17,West,276,1.0,3.0,64,0.00,,---,0.00,VWS V14.00,2013-04-14 13:47:00,
2013-04-14 09:52:00,46.5,34.6,30.17,NE,53,0.0,1.0,63,0.00,,---,0.00,VWS V14.00,2013-04-14 13:52:00,
2013-04-14 09:57:00,47.1,33.9,30.16,SSE,155,0.0,2.0,60,0.00,,---,0.00,VWS V14.00,2013-04-14 13:57:00,
2013-04-14 10:02:00,47.6,34.4,30.17,ESE,102,1.0,3.0,60,0.00,,---,0.00,VWS V14.00,2013-04-14 14:02:00,
2013-04-14 10:07:00,48.2,35.8,30.16,South,173,2.0,3.0,62,0.00,,---,0.00,VWS V14.00,2013-04-14 14:07:00,
2013-04-14 10:12:00,48.7,35.0,30.16,SSE,159,0.0,3.0,59,0.00,,---,0.00,VWS V14.00,2013-04-14 14:12:00,
2013-04-14 10:17:00,48.9,34.8,30.17,SW,220,0.0,1.0,58,0.00,,---,0.00,VWS V14.00,2013-04-14 14:17:00,
2013-04-14 10:22:00,49.3,36.0,30.16,NNE,15,1.0,5.0,60,0.00,,---,0.00,VWS V14.00,2013-04-14 14:22:00,
2013-04-14 10:27:00,49.7,35.1,30.16,NE,39,0.0,2.0,57,0.00,,---,0.00,VWS V14.00,2013-04-14 14:27:00,
2013-04-14 10:32:00,50.1,35.9,30.15,NE,51,0.0,2.0,58,0.00,,---,0.00,VWS V14.00,2013-04-14 14:32:00,
2013-04-14 10:37:00,50.4,35.3,30.15,South,174,0.0,4.0,56,0.00,,---,0.00,VWS V14.00,2013-04-14 14:37:00,
2013-04-14 10:42:00,50.7,35.6,30.15,SSE,165,0.0,3.0,56,0.00,,---,0.00,VWS V14.00,2013-04-14 14:42:00,
2013-04-14 10:47:00,50.8,35.2,30.16,SSE,159,0.0,4.0,55,0.00,,---,0.00,VWS V14.00,2013-04-14 14:47:00,
2013-04-14 10:52:00,51.0,35.4,30.16,SSE,155,1.0,2.0,55,0.00,,---,0.00,VWS V14.00,2013-04-14 14:52:00,
2013-04-14 10:57:00,51.2,34.2,30.16,West,277,0.0,2.0,52,0.00,,---,0.00,VWS V14.00,2013-04-14 14:57:00,
2013-04-14 11:02:00,51.7,37.4,30.15,NNW,337,0.0,4.0,58,0.00,,---,0.00,VWS V14.00,2013-04-14 15:02:00,
2013-04-14 11:07:00,52.1,36.4,30.16,NW,307,2.0,4.0,55,0.00,,---,0.00,VWS V14.00,2013-04-14 15:07:00,
2013-04-14 11:12:00,52.3,35.2,30.15,NE,38,1.0,4.0,52,0.00,,---,0.00,VWS V14.00,2013-04-14 15:12:00,
2013-04-14 11:17:00,52.5,35.4,30.15,NNW,328,1.0,2.0,52,0.00,,---,0.00,VWS V14.00,2013-04-14 15:17:00,
2013-04-14 11:22:00,52.8,36.2,30.15,NW,325,0.0,2.0,53,0.00,,---,0.00,VWS V14.00,2013-04-14 15:22:00,
2013-04-14 11:27:00,53.1,37.4,30.15,WNW,300,2.0,3.0,55,0.00,,---,0.00,VWS V14.00,2013-04-14 15:27:00,
2013-04-14 11:32:00,53.6,37.8,30.14,South,171,1.0,5.0,55,0.00,,---,0.00,VWS V14.00,2013-04-14 15:32:00,
2013-04-14 11:37:00,54.1,37.4,30.15,South,178,3.0,8.0,53,0.00,,---,0.00,VWS V14.00,2013-04-14 15:37:00,
2013-04-14 11:42:00,54.4,37.6,30.15,SSE,163,1.0,4.0,53,0.00,,---,0.00,VWS V14.00,2013-04-14 15:42:00,
2013-04-14 11:48:00,54.7,37.4,30.15,South,184,0.0,3.0,52,0.00,,---,0.00,VWS V14.00,2013-04-14 15:48:00,
2013-04-14 11:53:00,55.1,37.8,30.15,SSE,165,4.0,4.0,52,0.00,,---,0.00,VWS V14.00,2013-04-14 15:53:00,
2013-04-14 11:58:00,55.2,38.4,30.13,NE,42,0.0,3.0,53,0.00,,---,0.00,VWS V14.00,2013-04-14 15:58:00,
2013-04-14 12:03:00,55.4,37.1,30.14,WNW,294,2.0,4.0,50,0.00,,---,0.00,VWS V14.00,2013-04-14 16:03:00,
2013-04-14 12:08:00,55.6,38.8,30.13,WNW,302,1.0,6.0,53,0.00,,---,0.00,VWS V14.00,2013-04-14 16:08:00,
2013-04-14 12:13:00,55.6,37.3,30.12,WNW,300,2.0,5.0,50,0.00,,---,0.00,VWS V14.00,2013-04-14 16:13:00,
2013-04-14 12:18:00,55.6,38.3,30.13,NW,318,0.0,4.0,52,0.00,,---,0.00,VWS V14.00,2013-04-14 16:18:00,
2013-04-14 12:23:00,56.1,39.7,30.13,South,187,1.0,3.0,54,0.00,,---,0.00,VWS V14.00,2013-04-14 16:23:00,
2013-04-14 12:28:00,56.4,38.5,30.12,SW,214,1.0,3.0,51,0.00,,---,0.00,VWS V14.00,2013-04-14 16:28:00,
2013-04-14 12:33:00,56.6,38.2,30.12,South,182,0.0,3.0,50,0.00,,---,0.00,VWS V14.00,2013-04-14 16:33:00,
2013-04-14 12:38:00,56.7,39.3,30.12,West,277,0.0,2.0,52,0.00,,---,0.00,VWS V14.00,2013-04-14 16:38:00,
2013-04-14 12:43:00,56.8,37.3,30.12,WNW,294,0.0,5.0,48,0.00,,---,0.00,VWS V14.00,2013-04-14 16:43:00,
2013-04-14 12:48:00,56.8,38.4,30.12,WNW,290,0.0,5.0,50,0.00,,---,0.00,VWS V14.00,2013-04-14 16:48:00,
2013-04-14 12:53:00,57.0,37.5,30.12,SSE,157,1.0,5.0,48,0.00,,---,0.00,VWS V14.00,2013-04-14 16:53:00,
2013-04-14 12:58:00,57.2,41.2,30.12,South,169,1.0,3.0,55,0.00,,---,0.00,VWS V14.00,2013-04-14 16:58:00,
2013-04-14 13:03:00,57.5,40.0,30.12,West,276,2.0,3.0,52,0.00,,---,0.00,VWS V14.00,2013-04-14 17:03:00,
2013-04-14 13:08:00,57.8,40.3,30.12,NW,326,0.0,6.0,52,0.00,,---,0.00,VWS V14.00,2013-04-14 17:08:00,
2013-04-14 13:13:00,58.3,40.8,30.11,NNE,27,0.0,3.0,52,0.00,,---,0.00,VWS V14.00,2013-04-14 17:13:00,
2013-04-14 13:19:00,58.8,40.2,30.11,WSW,246,2.0,2.0,50,0.00,,---,0.00,VWS V14.00,2013-04-14 17:19:00,
2013-04-14 13:24:00,59.0,39.9,30.10,ESE,122,0.0,2.0,49,0.00,,---,0.00,VWS V14.00,2013-04-14 17:24:00,
2013-04-14 13:29:00,58.9,39.8,30.10,ENE,71,0.0,4.0,49,0.00,,---,0.00,VWS V14.00,2013-04-14 17:29:00,
2013-04-14 13:34:00,59.3,39.6,30.10,SE,145,0.0,0.0,48,0.00,,---,0.00,VWS V14.00,2013-04-14 17:34:00,
2013-04-14 13:39:00,59.6,41.0,30.09,ESE,106,4.0,5.0,50,0.00,,---,0.00,VWS V14.00,2013-04-14 17:39:00,
2013-04-14 13:44:00,59.7,40.0,30.10,SSE,149,0.0,2.0,48,0.00,,---,0.00,VWS V14.00,2013-04-14 17:44:00,
2013-04-14 13:49:00,59.8,40.1,30.09,ESE,123,0.0,1.0,48,0.00,,---,0.00,VWS V14.00,2013-04-14 17:49:00,
2013-04-14 13:54:00,60.0,40.8,30.09,ESE,112,2.0,4.0,49,0.00,,---,0.00,VWS V14.00,2013-04-14 17:54:00,
2013-04-14 13:59:00,60.1,39.3,30.09,WSW,253,1.0,1.0,46,0.00,,---,0.00,VWS V14.00,2013-04-14 17:59:00,
2013-04-14 14:04:00,60.2,39.4,30.09,WSW,243,0.0,0.0,46,0.00,,---,0.00,VWS V14.00,2013-04-14 18:04:00,
2013-04-14 14:09:00,60.4,40.6,30.09,WSW,240,0.0,1.0,48,0.00,,---,0.00,VWS V14.00,2013-04-14 18:09:00,
2013-04-14 14:14:00,60.7,40.4,30.09,WNW,297,0.0,2.0,47,0.00,,---,0.00,VWS V14.00,2013-04-14 18:14:00,
2013-04-14 14:19:00,61.1,41.3,30.09,ESE,117,0.0,2.0,48,0.00,,---,0.00,VWS V14.00,2013-04-14 18:19:00,
2013-04-14 14:24:00,61.4,39.3,30.09,South,189,0.0,2.0,44,0.00,,---,0.00,VWS V14.00,2013-04-14 18:24:00,
2013-04-14 14:29:00,61.6,40.1,30.09,SSE,163,1.0,4.0,45,0.00,,---,0.00,VWS V14.00,2013-04-14 18:29:00,
2013-04-14 14:34:00,61.5,38.8,30.09,ESE,116,6.0,7.0,43,0.00,,---,0.00,VWS V14.00,2013-04-14 18:34:00,
2013-04-14 14:39:00,61.2,39.7,30.09,SSE,151,2.0,2.0,45,0.00,,---,0.00,VWS V14.00,2013-04-14 18:39:00,
2013-04-14 14:44:00,61.4,42.1,30.09,SW,223,0.0,1.0,49,0.00,,---,0.00,VWS V14.00,2013-04-14 18:44:00,
2013-04-14 14:49:00,61.5,39.4,30.09,SW,225,0.0,0.0,44,0.00,,---,0.00,VWS V14.00,2013-04-14 18:49:00,
2013-04-14 14:54:00,61.7,37.8,30.09,NW,306,0.0,0.0,41,0.00,,---,0.00,VWS V14.00,2013-04-14 18:54:00,
2013-04-14 14:59:00,62.0,42.6,30.09,WNW,303,2.0,2.0,49,0.00,,---,0.00,VWS V14.00,2013-04-14 18:59:00,
2013-04-14 15:04:00,62.4,41.4,30.08,NW,325,1.0,2.0,46,0.00,,---,0.00,VWS V14.00,2013-04-14 19:04:00,
2013-04-14 15:09:00,62.6,40.4,30.08,WNW,301,0.0,0.0,44,0.00,,---,0.00,VWS V14.00,2013-04-14 19:09:00,
2013-04-14 15:14:00,62.9,40.7,30.08,SSE,149,0.0,2.0,44,0.00,,---,0.00,VWS V14.00,2013-04-14 19:14:00,
2013-04-14 15:19:00,62.9,39.5,30.08,NE,39,0.0,1.0,42,0.00,,---,0.00,VWS V14.00,2013-04-14 19:19:00,
2013-04-14 15:24:00,63.1,40.9,30.08,East,86,1.0,1.0,44,0.00,,---,0.00,VWS V14.00,2013-04-14 19:24:00,
2013-04-14 15:29:00,63.2,40.3,30.08,West,275,2.0,3.0,43,0.00,,---,0.00,VWS V14.00,2013-04-14 19:29:00,
2013-04-14 15:34:00,63.4,42.3,30.08,ESE,120,0.0,1.0,46,0.00,,---,0.00,VWS V14.00,2013-04-14 19:34:00,
2013-04-14 15:39:00,63.5,41.8,30.08,SSE,157,3.0,4.0,45,0.00,,---,0.00,VWS V14.00,2013-04-14 19:39:00,
2013-04-14 15:44:00,63.4,42.8,30.07,SW,225,2.0,3.0,47,0.00,,---,0.00,VWS V14.00,2013-04-14 19:44:00,
2013-04-14 15:49:00,63.6,43.0,30.07,South,174,3.0,3.0,47,0.00,,---,0.00,VWS V14.00,2013-04-14 19:49:00,
2013-04-14 15:54:00,63.8,42.1,30.06,SSW,202,0.0,1.0,45,0.00,,---,0.00,VWS V14.00,2013-04-14 19:54:00,
2013-04-14 15:59:00,64.0,41.7,30.06,WNW,297,0.0,0.0,44,0.00,,---,0.00,VWS V14.00,2013-04-14 19:59:00,
2013-04-14 16:04:00,64.3,41.9,30.06,SSE,167,0.0,2.0,44,0.00,,---,0.00,VWS V14.00,2013-04-14 20:04:00,
2013-04-14 16:09:00,64.5,40.3,30.06,WSW,240,0.0,2.0,41,0.00,,---,0.00,VWS V14.00,2013-04-14 20:09:00,
2013-04-14 16:14:00,64.7,41.1,30.06,WNW,296,2.0,5.0,42,0.00,,---,0.00,VWS V14.00,2013-04-14 20:14:00,
2013-04-14 16:19:00,64.5,40.9,30.05,South,184,0.0,1.0,42,0.00,,---,0.00,VWS V14.00,2013-04-14 20:19:00,
2013-04-14 16:24:00,64.5,40.9,30.06,SSE,157,4.0,7.0,42,0.00,,---,0.00,VWS V14.00,2013-04-14 20:24:00,
2013-04-14 16:29:00,64.3,40.7,30.06,SSW,205,0.0,1.0,42,0.00,,---,0.00,VWS V14.00,2013-04-14 20:29:00,
2013-04-14 16:34:00,64.3,40.7,30.05,SSW,205,0.0,0.0,42,0.00,,---,0.00,VWS V14.00,2013-04-14 20:34:00,
2013-04-14 16:39:00,64.3,40.1,30.05,East,90,0.0,0.0,41,0.00,,---,0.00,VWS V14.00,2013-04-14 20:39:00,
2013-04-14 16:44:00,64.3,41.3,30.05,NNE,28,0.0,0.0,43,0.00,,---,0.00,VWS V14.00,2013-04-14 20:44:00,
2013-04-14 16:49:00,64.5,42.7,30.05,ESE,109,2.0,3.0,45,0.00,,---,0.00,VWS V14.00,2013-04-14 20:49:00,
2013-04-14 16:54:00,64.5,40.3,30.05,SSW,192,0.0,3.0,41,0.00,,---,0.00,VWS V14.00,2013-04-14 20:54:00,
2013-04-14 16:59:00,64.6,42.2,30.05,ENE,75,0.0,4.0,44,0.00,,---,0.00,VWS V14.00,2013-04-14 20:59:00,
2013-04-14 17:04:00,64.8,43.0,30.05,East,88,2.0,5.0,45,0.00,,---,0.00,VWS V14.00,2013-04-14 21:04:00,
2013-04-14 17:09:00,64.8,41.8,30.05,ENE,74,1.0,1.0,43,0.00,,---,0.00,VWS V14.00,2013-04-14 21:09:00,
2013-04-14 17:14:00,65.0,42.0,30.05,SSE,168,0.0,1.0,43,0.00,,---,0.00,VWS V14.00,2013-04-14 21:14:00,
2013-04-14 17:19:00,65.1,40.8,30.05,ENE,57,0.0,2.0,41,0.00,,---,0.00,VWS V14.00,2013-04-14 21:19:00,
2013-04-14 17:24:00,65.0,40.8,30.06,South,177,3.0,3.0,41,0.00,,---,0.00,VWS V14.00,2013-04-14 21:24:00,
2013-04-14 17:29:00,64.8,41.8,30.06,South,174,0.0,0.0,43,0.00,,---,0.00,VWS V14.00,2013-04-14 21:29:00,
2013-04-14 17:35:00,64.6,41.0,30.05,ENE,71,2.0,3.0,42,0.00,,---,0.00,VWS V14.00,2013-04-14 21:35:00,
2013-04-14 17:40:00,64.4,41.4,30.05,NNE,32,0.0,2.0,43,0.00,,---,0.00,VWS V14.00,2013-04-14 21:40:00,
2013-04-14 17:45:00,64.4,43.2,30.04,ENE,71,0.0,2.0,46,0.00,,---,0.00,VWS V14.00,2013-04-14 21:45:00,
2013-04-14 17:50:00,64.4,43.2,30.05,NE,51,2.0,2.0,46,0.00,,---,0.00,VWS V14.00,2013-04-14 21:50:00,
2013-04-14 17:55:00,64.4,43.8,30.05,NE,40,1.0,1.0,47,0.00,,---,0.00,VWS V14.00,2013-04-14 21:55:00,
2013-04-14 18:00:00,64.3,42.5,30.05,East,95,0.0,1.0,45,0.00,,---,0.00,VWS V14.00,2013-04-14 22:00:00,
2013-04-14 18:05:00,64.3,41.9,30.05,NNE,28,0.0,2.0,44,0.00,,---,0.00,VWS V14.00,2013-04-14 22:05:00,
2013-04-14 18:10:00,64.2,43.0,30.05,NNE,30,0.0,2.0,46,0.00,,---,0.00,VWS V14.00,2013-04-14 22:10:00,
2013-04-14 18:15:00,64.1,41.2,30.05,North,360,0.0,5.0,43,0.00,,---,0.00,VWS V14.00,2013-04-14 22:15:00,
2013-04-14 18:20:00,63.9,41.6,30.04,ENE,66,0.0,0.0,44,0.00,,---,0.00,VWS V14.00,2013-04-14 22:20:00,
2013-04-14 18:25:00,63.7,42.0,30.04,NE,42,1.0,2.0,45,0.00,,---,0.00,VWS V14.00,2013-04-14 22:25:00,
2013-04-14 18:30:00,63.5,41.2,30.04,ENE,59,0.0,0.0,44,0.00,,---,0.00,VWS V14.00,2013-04-14 22:30:00,
2013-04-14 18:35:00,63.3,41.0,30.05,East,82,0.0,1.0,44,0.00,,---,0.00,VWS V14.00,2013-04-14 22:35:00,
2013-04-14 18:40:00,63.0,41.3,30.05,ENE,64,0.0,1.0,45,0.00,,---,0.00,VWS V14.00,2013-04-14 22:40:00,
2013-04-14 18:45:00,62.7,40.5,30.05,NW,322,0.0,1.0,44,0.00,,---,0.00,VWS V14.00,2013-04-14 22:45:00,
2013-04-14 18:50:00,62.5,40.9,30.05,ENE,67,0.0,0.0,45,0.00,,---,0.00,VWS V14.00,2013-04-14 22:50:00,
2013-04-14 18:55:00,62.3,40.7,30.05,North,350,0.0,4.0,45,0.00,,---,0.00,VWS V14.00,2013-04-14 22:55:00,
2013-04-14 19:00:00,62.0,40.4,30.04,ENE,69,0.0,2.0,45,0.00,,---,0.00,VWS V14.00,2013-04-14 23:00:00,
2013-04-14 19:05:00,61.8,40.8,30.05,ENE,63,0.0,2.0,46,0.00,,---,0.00,VWS V14.00,2013-04-14 23:05:00,
2013-04-14 19:10:00,61.5,40.5,30.04,East,81,0.0,2.0,46,0.00,,---,0.00,VWS V14.00,2013-04-14 23:10:00,
2013-04-14 19:15:00,61.2,40.3,30.04,East,86,0.0,1.0,46,0.00,,---,0.00,VWS V14.00,2013-04-14 23:15:00,
2013-04-14 19:20:00,61.0,40.1,30.04,NNE,15,0.0,0.0,46,0.00,,---,0.00,VWS V14.00,2013-04-14 23:20:00,
2013-04-14 19:25:00,60.8,39.9,30.03,ENE,76,0.0,1.0,46,0.00,,---,0.00,VWS V14.00,2013-04-14 23:25:00,
2013-04-14 19:30:00,60.5,40.2,30.03,ENE,76,0.0,0.0,47,0.00,,---,0.00,VWS V14.00,2013-04-14 23:30:00,
2013-04-14 19:35:00,60.3,41.1,30.03,ENE,76,0.0,0.0,49,0.00,,---,0.00,VWS V14.00,2013-04-14 23:35:00,
2013-04-14 19:40:00,60.0,41.3,30.03,East,93,0.0,0.0,50,0.00,,---,0.00,VWS V14.00,2013-04-14 23:40:00,
2013-04-14 19:45:00,59.8,41.1,30.03,East,93,0.0,0.0,50,0.00,,---,0.00,VWS V14.00,2013-04-14 23:45:00,
2013-04-14 19:50:00,59.5,41.4,30.03,East,93,0.0,0.0,51,0.00,,---,0.00,VWS V14.00,2013-04-14 23:50:00,
2013-04-14 19:55:00,59.3,41.2,30.03,East,93,0.0,0.0,51,0.00,,---,0.00,VWS V14.00,2013-04-14 23:55:00,
2013-04-14 20:00:00,59.0,41.4,30.03,East,93,0.0,0.0,52,0.00,,---,0.00,VWS V14.00,2013-04-15 00:00:00,
2013-04-14 20:05:00,58.7,41.1,30.03,East,93,0.0,0.0,52,0.00,,---,0.00,VWS V14.00,2013-04-15 00:05:00,
2013-04-14 20:10:00,58.4,41.8,30.03,East,93,0.0,0.0,54,0.00,,---,0.00,VWS V14.00,2013-04-15 00:10:00,
2013-04-14 20:15:00,58.0,41.5,30.03,East,93,0.0,0.0,54,0.00,,---,0.00,VWS V14.00,2013-04-15 00:15:00,
2013-04-14 20:20:00,57.6,42.0,30.03,East,93,0.0,0.0,56,0.00,,---,0.00,VWS V14.00,2013-04-15 00:20:00,
2013-04-14 20:25:00,57.2,42.1,30.03,East,93,0.0,0.0,57,0.00,,---,0.00,VWS V14.00,2013-04-15 00:25:00,
2013-04-14 20:30:00,56.7,41.7,30.04,East,93,0.0,0.0,57,0.00,,---,0.00,VWS V14.00,2013-04-15 00:30:00,
2013-04-14 20:35:00,56.3,41.7,30.04,East,93,0.0,0.0,58,0.00,,---,0.00,VWS V14.00,2013-04-15 00:35:00,
2013-04-14 20:40:00,55.9,41.8,30.04,East,93,0.0,0.0,59,0.00,,---,0.00,VWS V14.00,2013-04-15 00:40:00,
2013-04-14 20:45:00,55.4,41.8,30.03,East,93,0.0,0.0,60,0.00,,---,0.00,VWS V14.00,2013-04-15 00:45:00,
2013-04-14 20:50:00,55.0,42.2,30.04,East,93,0.0,0.0,62,0.00,,---,0.00,VWS V14.00,2013-04-15 00:50:00,
2013-04-14 20:55:00,54.5,42.2,30.04,East,93,0.0,0.0,63,0.00,,---,0.00,VWS V14.00,2013-04-15 00:55:00,
2013-04-14 21:00:00,54.2,42.3,30.03,East,93,0.0,0.0,64,0.00,,---,0.00,VWS V14.00,2013-04-15 01:00:00,
2013-04-14 21:05:00,53.8,42.3,30.03,East,93,0.0,0.0,65,0.00,,---,0.00,VWS V14.00,2013-04-15 01:05:00,
2013-04-14 21:10:00,53.5,42.0,30.04,East,93,0.0,0.0,65,0.00,,---,0.00,VWS V14.00,2013-04-15 01:10:00,
2013-04-14 21:15:00,53.2,42.2,30.03,East,93,0.0,0.0,66,0.00,,---,0.00,VWS V14.00,2013-04-15 01:15:00,
2013-04-14 21:20:00,52.9,42.3,30.04,East,93,0.0,0.0,67,0.00,,---,0.00,VWS V14.00,2013-04-15 01:20:00,
2013-04-14 21:25:00,52.6,42.0,30.04,East,93,0.0,0.0,67,0.00,,---,0.00,VWS V14.00,2013-04-15 01:25:00,
2013-04-14 21:30:00,52.4,42.2,30.03,East,93,0.0,0.0,68,0.00,,---,0.00,VWS V14.00,2013-04-15 01:30:00,
2013-04-14 21:35:00,52.3,42.5,30.03,East,93,0.0,0.0,69,0.00,,---,0.00,VWS V14.00,2013-04-15 01:35:00,
2013-04-14 21:40:00,52.1,42.2,30.03,East,93,0.0,0.0,69,0.00,,---,0.00,VWS V14.00,2013-04-15 01:40:00,
2013-04-14 21:45:00,51.9,42.4,30.04,East,93,0.0,0.0,70,0.00,,---,0.00,VWS V14.00,2013-04-15 01:45:00,
2013-04-14 21:51:00,51.7,42.2,30.04,East,93,0.0,0.0,70,0.00,,---,0.00,VWS V14.00,2013-04-15 01:51:00,
2013-04-14 21:55:00,51.6,42.2,30.03,East,93,0.0,0.0,70,0.00,,---,0.00,VWS V14.00,2013-04-15 01:55:00,
2013-04-14 22:00:00,51.5,42.0,30.04,East,93,0.0,0.0,70,0.00,,---,0.00,VWS V14.00,2013-04-15 02:00:00,
2013-04-14 22:06:00,51.4,42.0,30.03,East,93,0.0,0.0,70,0.00,,---,0.00,VWS V14.00,2013-04-15 02:06:00,
2013-04-14 22:11:00,51.3,42.2,30.03,East,93,0.0,0.0,71,0.00,,---,0.00,VWS V14.00,2013-04-15 02:11:00,
2013-04-14 22:16:00,51.3,42.6,30.03,East,93,0.0,0.0,72,0.00,,---,0.00,VWS V14.00,2013-04-15 02:16:00,
2013-04-14 22:21:00,51.3,42.6,30.03,East,93,0.0,0.0,72,0.00,,---,0.00,VWS V14.00,2013-04-15 02:21:00,
2013-04-14 22:26:00,51.3,42.6,30.03,East,93,0.0,0.0,72,0.00,,---,0.00,VWS V14.00,2013-04-15 02:26:00,
2013-04-14 22:31:00,51.3,43.0,30.03,East,93,0.0,0.0,73,0.00,,---,0.00,VWS V14.00,2013-04-15 02:31:00,
2013-04-14 22:36:00,51.3,43.0,30.03,East,93,0.0,0.0,73,0.00,,---,0.00,VWS V14.00,2013-04-15 02:36:00,
2013-04-14 22:41:00,51.3,43.3,30.02,East,93,0.0,0.0,74,0.00,,---,0.00,VWS V14.00,2013-04-15 02:41:00,
2013-04-14 22:46:00,51.3,43.3,30.02,East,93,0.0,0.0,74,0.00,,---,0.00,VWS V14.00,2013-04-15 02:46:00,
2013-04-14 22:51:00,51.3,43.3,30.02,East,93,0.0,0.0,74,0.00,,---,0.00,VWS V14.00,2013-04-15 02:51:00,
2013-04-14 22:56:00,51.2,42.9,30.02,East,93,0.0,0.0,73,0.00,,---,0.00,VWS V14.00,2013-04-15 02:56:00,
2013-04-14 23:01:00,51.2,42.9,30.02,East,93,0.0,0.0,73,0.00,,---,0.00,VWS V14.00,2013-04-15 03:01:00,
2013-04-14 23:06:00,51.2,42.9,30.02,East,93,0.0,0.0,73,0.00,,---,0.00,VWS V14.00,2013-04-15 03:06:00,
2013-04-14 23:11:00,51.2,42.9,30.02,East,93,0.0,0.0,73,0.00,,---,0.00,VWS V14.00,2013-04-15 03:11:00,
2013-04-14 23:16:00,51.2,42.5,30.02,East,93,0.0,0.0,72,0.00,,---,0.00,VWS V14.00,2013-04-15 03:16:00,
2013-04-14 23:21:00,51.1,42.4,30.02,East,93,0.0,0.0,72,0.00,,---,0.00,VWS V14.00,2013-04-15 03:21:00,
2013-04-14 23:26:00,51.2,42.1,30.02,East,93,0.0,0.0,71,0.00,,---,0.00,VWS V14.00,2013-04-15 03:26:00,
2013-04-14 23:31:00,51.2,42.1,30.02,East,93,0.0,0.0,71,0.00,,---,0.00,VWS V14.00,2013-04-15 03:31:00,
2013-04-14 23:36:00,51.2,42.1,30.02,East,93,0.0,0.0,71,0.00,,---,0.00,VWS V14.00,2013-04-15 03:36:00,
2013-04-14 23:41:00,51.2,42.1,30.01,East,93,0.0,0.0,71,0.00,,---,0.00,VWS V14.00,2013-04-15 03:41:00,
2013-04-14 23:46:00,51.2,42.1,30.01,East,93,0.0,0.0,71,0.00,,---,0.00,VWS V14.00,2013-04-15 03:46:00,
2013-04-14 23:51:00,51.3,42.2,30.01,East,93,0.0,0.0,71,0.00,,---,0.00,VWS V14.00,2013-04-15 03:51:00,
2013-04-14 23:56:00,51.3,42.2,30.01,East,93,0.0,0.0,71,0.00,,---,0.00,VWS V14.00,2013-04-15 03:56:00,